Regional Weather Roundup
Issued by NWS

Home | Current Version | Previous Version | Graphics & Text | Print | Product List | Glossary On
Versions: 1 2 3 4 5 6 7 8 9 10 11 12 13 14 15 16 17 18 19 20 21 22 23 24 25 26 27 28 29 30 31 32 33 34 35 36 37 38 39 40 41 42 43 44 45 46 47 48 49 50
000
ASUS43 KIND 232259
RWRIN

WEATHER ROUNDUP FOR INDIANA
NATIONAL WEATHER SERVICE INDIANAPOLIS IN
700 PM EDT SAT JUL 23 2016

NOTE: "FAIR" INDICATES FEW OR NO CLOUDS BELOW 12,000 FEET WITH NO
SIGNIFICANT WEATHER AND/OR OBSTRUCTIONS TO VISIBILITY.

* - STATION DOES NOT REPORT WEATHER SUCH AS PRECIPITATION OR FOG.

+ - STATION NOT QUALITY CONTROLLED BY THE NATIONAL WEATHER SERVICE.
    USE DATA WITH CAUTION...ESPECIALLY DEWPOINT AND RELATIVE
    HUMIDITY OBSERVATIONS.

INZ001>003-010>013-019-020-240000-
NORTHWEST INDIANA

CITY           SKY/WX    TMP DP  RH WIND       PRES   REMARKS
GARY /AIRPORT/ PTSUNNY   90 N/A N/A S6        29.92F
KNOX *+        PTSUNNY   86  68  54 W7        29.94F
MONTICELLO +   MOSUNNY   88  72  58 W3        29.94S

$$

LMZ046-743>745-240000-
SOUTHERN LAKE MICHIGAN

STATION/POSITION TIME  TEMP    WIND        PRES    WAVE
                       AIR SEA DIR/SP/G            HT
                 (UTC) (F)     (DEG/KT/KT) (MB)    (FT)
BURNS HARBOR     2200   81      60/  9/ 11 1014.2S
MICHIGAN CITY    2220   79      30/  8/  9   N/A
5NW MICH CITY    2200   80 78   60/  4/  6   N/A     1

$$

INZ004-005-014>016-021>024-240000-
NORTH CENTRAL INDIANA

CITY           SKY/WX    TMP DP  RH WIND       PRES   REMARKS
SOUTH BEND     CLOUDY    90  75  61 N6        29.94F HX 100

$$

INZ006>009-017-018-025>027-240000-
NORTHEAST INDIANA

CITY           SKY/WX    TMP DP  RH WIND       PRES   REMARKS
ANGOLA *+        N/A     88  82  84 N3        29.97S HX 108
FORT WAYNE     PTSUNNY   88  74  63 SW7       29.95F HX  96

$$

INZ028-029-035-036-043>045-051>053-240000-
WEST CENTRAL INDIANA

CITY           SKY/WX    TMP DP  RH WIND       PRES   REMARKS
CRAWFORDSVL +  CLOUDY    86  77  74 CALM      29.96S HX  97
LAFAYETTE      MOSUNNY   86  77  74 SW5       29.94S HX  97
TERRE HAUTE    SUNNY     88  75  65 SE5       29.94F HX  97

$$

INZ030>032-037>040-046>048-054>057-064-065-240000-
CENTRAL INDIANA

CITY           SKY/WX    TMP DP  RH WIND       PRES   REMARKS
COLUMBUS       MOSUNNY   90  75  62 SE6       29.95F HX 100
INDIANAPOLIS   PTSUNNY   89  72  56 SW7       29.95F HX  96
-EAGLE CREEK   MOSUNNY   90  73  57 SW6       29.94F HX  98
KOKOMO *+      PTSUNNY   86  73  66 S6        29.95F
SHELBYVILLE    MOSUNNY   89  74  60 S5        29.95F HX  98

$$

INZ033-034-041-042-049-050-058-059-240000-
EAST CENTRAL INDIANA

CITY           SKY/WX    TMP DP  RH WIND       PRES   REMARKS
MUNCIE         CLOUDY    87  73  62 NW6       29.96F

$$

INZ060-061-067>069-081>083-085>088-240000-
SOUTHWEST INDIANA

CITY           SKY/WX    TMP DP  RH WIND       PRES   REMARKS
EVANSVILLE     SUNNY     91  75  59 VRB6      29.92F HX 101
HUNTINGBURG *+ SUNNY     91  75  59 CALM      29.93F HX 102

$$

INZ062-063-066-070>080-084-089>092-240000-
SOUTH CENTRAL AND SOUTHEAST INDIANA

CITY           SKY/WX    TMP DP  RH WIND       PRES   REMARKS
BLOOMINGTON    MOSUNNY   88  75  65 W3        29.96F HX  97
MADISON *+     SUNNY     90  72  55 NW3       29.98S HX  96
SEYMOUR +      MOSUNNY   91  73  55 CALM      29.94F HX 100

$$





USA.gov is the U.S. government's official web portal to all federal, state and local government web resources and services.